Wetbulb
41.20 41.51 41.43 42.32 43.21 43.26 43.19 43.21 42.94 42.84 42.82 42.98 43.23 43.24 43.11 43.14 43.12 40.82 38.27 41.08 36.17 31.71 31.19 32.74 32.31 27.79 27.95 28.03 24.48 26.24 23.59 25.35 26.62 22.27 21.87 23.52 25.68 26.69 25.44 28.88 29.43 28.80 27.07 27.07 28.78 25.84 23.24 36.29 35.70 31.87 34.83 38.50 37.37 36.74
42.25 41.89 41.23 41.58 42.30 42.75 42.72 42.62 42.45 42.26 42.27 42.34 42.75 43.06 42.88 42.78 42.83 42.06 35.38 40.36 40.43 33.36 31.75 36.23 35.65 36.19 34.59 33.33 28.74 24.77 23.24 17.84 25.44 21.85 22.68 24.34 19.24 21.98 21.64 17.51 29.03 22.49 24.15 20.21 23.55 25.27 33.47 35.54 31.45 32.52 37.74 33.36 33.95 34.93
40.99 40.95 41.37 41.16 41.44 41.50 41.84 41.94 41.99 41.97 41.89 41.99 42.32 42.70 42.59 42.51 42.45 41.22 36.97 38.08 37.12 32.32 31.19 30.65 28.78 34.34 37.02 36.02 36.91 24.79 24.56 28.89 26.26 28.00 24.27 21.52 18.61 22.95 13.25 14.56 17.79 22.20 27.27 22.97 22.07 29.75 27.40 28.44 32.03 34.20 33.71 30.75 31.43 31.81
39.95 40.43 40.75 40.54 40.57 40.87 41.08 41.18 41.23 41.49 41.49 41.45 41.86 42.04 41.88 42.08 42.17 41.55 36.14 37.78 36.41 33.07 25.42 24.83 34.36 32.52 36.51 36.50 35.29 34.11 31.35 31.20 29.78 27.68 22.26 16.62 10.40 23.48 17.02 20.40 18.61 20.47 21.93 18.71 19.01 24.14 26.65 28.78 30.94 30.84 30.36 29.71 28.62 30.43
39.44 39.55 40.02 39.94 40.20 40.26 40.46 40.57 40.65 40.81 40.87 41.08 41.51 41.21 41.45 41.54 41.81 40.25 38.24 37.92 38.48 31.79 24.74 26.02 27.19 31.15 33.14 33.77 32.56 32.22 30.77 28.36 26.06 23.98 20.65 17.44 19.97 19.29 19.82 21.13 16.95 22.56 20.56 17.85 16.51 25.17 24.70 25.27 27.23 28.83 22.96 22.33 24.11 26.77
39.07 39.12 39.43 39.61 39.94 40.01 40.21 40.39 40.33 40.48 40.54 40.78 40.96 40.95 40.79 40.84 41.07 36.75 30.93 36.01 38.39 37.50 28.49 21.49 29.93 26.70 30.63 30.99 29.95 29.28 29.36 28.30 27.42 23.78 21.85 23.54 26.68 22.09 13.10 11.62 21.71 25.03 26.79 27.15 22.99 18.32 19.93 23.19 24.40 23.48 19.44 19.89 21.93 19.42
38.78 38.73 38.90 39.06 39.42 39.57 39.74 39.92 40.01 40.11 40.48 40.64 40.64 40.65 40.54 40.51 36.99 31.77 30.29 33.69 39.57 37.77 28.11 22.30 21.95 25.42 29.55 28.56 25.72 27.71 29.38 27.11 26.35 24.71 22.38 22.87 22.83 23.95 18.91 13.41 22.19 24.77 21.92 18.09 18.89 15.57 16.55 18.14 15.15 17.04 17.96 17.39 17.23 16.05
38.28 38.29 38.40 38.68 38.85 38.99 39.31 39.43 39.82 40.12 40.19 40.00 39.96 39.99 39.94 40.10 38.72 33.69 37.11 39.16 38.41 32.76 29.90 19.20 19.38 21.28 26.85 20.45 18.65 26.56 24.10 25.86 26.01 23.65 22.04 20.82 22.06 22.15 14.76 20.87 22.10 15.00 13.89 15.46 13.96 14.25 13.73 14.70 15.40 14.31 14.81 14.28 10.85 10.93
37.79 37.69 37.91 38.07 38.16 38.48 38.74 39.03 39.47 39.62 39.44 39.56 39.51 39.30 36.51 34.30 30.93 32.19 39.33 39.96 37.97 31.40 23.29 22.87 11.87 8.06 24.25 21.33 23.56 24.34 24.65 17.53 24.77 19.64 20.34 16.17 15.13 11.11 17.68 19.66 13.51 10.40 9.27 9.25 10.74 9.66 10.89 8.96 8.74 8.92 8.76 7.71 6.23 7.26
37.07 37.19 37.50 37.61 37.72 37.88 38.20 38.68 39.22 39.24 38.97 38.78 34.89 31.97 25.91 32.03 38.58 37.70 32.67 28.07 28.55 28.75 27.87 21.30 24.46 18.44 21.91 20.61 18.66 18.80 21.63 17.59 8.26 13.35 21.13 13.14 14.02 21.15 13.22 10.65 10.23 9.89 9.99 8.63 3.01 1.99 2.47 1.92 3.69 4.29 3.97 5.62 5.88 5.33
36.59 36.71 36.65 36.81 37.04 37.37 37.84 38.49 38.92 38.75 37.18 32.74 27.72 27.68 32.09 37.61 31.82 27.36 22.29 21.11 20.85 14.86 20.79 15.03 19.04 17.54 23.19 16.35 15.78 22.52 15.80 15.32 9.28 7.57 7.07 1.08 1.09 16.81 9.77 7.08 7.30 8.20 7.08 4.99 3.60 3.14 3.81 3.68 2.27 1.93 2.47 2.54 2.14 1.89
35.86 36.02 36.17 36.39 36.71 36.87 37.51 38.30 38.39 34.83 33.09 31.60 31.73 33.62 32.83 27.97 20.78 16.50 15.94 16.58 14.83 8.78 12.48 11.55 14.07 17.29 17.81 21.75 15.49 18.30 13.14 13.51 5.25 6.98 3.30 -1.96 13.08 4.52 1.12 0.71 1.59 2.65 0.23 -1.60 0.09 -0.39 0.65 1.10 0.90 0.39 0.16 -0.34 -0.35 1.02
35.35 35.49 35.76 36.17 36.55 36.97 37.68 37.87 37.87 37.48 36.43 33.79 29.17 25.37 23.97 22.18 15.75 13.96 11.41 10.04 3.35 8.19 8.57 8.71 8.04 15.27 17.36 21.57 19.70 16.33 12.44 10.50 7.97 3.49 0.62 5.91 1.77 -1.59 -4.26 -3.49 -3.58 -2.87 -3.39 -3.99 -4.09 -2.71 -2.94 -2.52 -0.76 -1.33 -2.16 -1.09 -0.56 -0.32
34.76 35.04 35.49 35.88 36.50 37.29 37.42 37.52 37.11 36.29 32.02 24.82 21.49 16.33 15.97 13.51 12.74 6.80 4.98 5.67 8.30 12.09 9.59 12.55 11.18 16.70 14.46 15.90 17.97 11.13 13.01 10.49 5.19 1.14 -0.58 -4.96 -7.97 -11.34 -6.87 -5.37 -8.16 -7.74 -7.77 -7.24 -7.17 -5.84 -4.09 -3.41 -2.96 -1.93 -1.61 -1.15 -1.06 -1.68
34.63 34.87 35.18 35.28 36.37 36.86 36.85 36.60 36.59 33.49 27.39 22.03 20.33 11.03 14.66 17.86 11.69 5.30 5.66 4.67 6.37 8.74 10.56 8.08 6.44 16.83 10.34 11.79 15.66 9.96 7.30 5.18 5.23 0.92 -9.66 -8.12 -6.62 -7.67 -7.84 -8.14 -9.24 -9.33 -8.86 -8.50 -6.13 -5.69 -4.89 -3.95 -3.82 -3.33 -2.35 -2.29 -0.43 0.58
34.36 34.15 32.53 35.57 36.66 36.93 36.62 35.11 31.89 30.42 24.43 20.24 15.19 12.01 1.35 6.52 5.73 3.58 2.10 -0.60 5.25 8.69 10.45 9.90 8.31 10.81 8.36 9.63 6.61 1.42 -2.11 -1.47 -1.24 -16.76 -12.35 -8.21 -9.48 -9.26 -9.46 -9.36 -9.27 -9.01 -8.00 -6.35 -5.95 -5.54 -4.12 -3.79 -3.41 -2.52 -1.84 -0.31 0.93 0.84
33.00 30.62 35.06 36.15 36.79 36.46 35.46 29.44 25.98 20.45 17.35 12.93 3.79 -0.27 -1.19 -3.89 -6.36 -6.14 -4.25 0.35 5.16 3.15 5.21 10.80 9.97 8.49 11.53 10.33 6.38 -7.61 -7.73 -16.56 -15.06 -12.39 -10.68 -13.07 -10.68 -10.19 -9.67 -9.50 -8.81 -7.97 -6.73 -6.89 -6.29 -4.52 -3.27 -1.67 -1.67 -2.74 -4.55 -1.96 0.63 0.82
27.96 30.85 35.87 35.52 32.51 30.94 27.65 27.28 22.32 19.14 12.84 5.62 3.69 -7.06 -6.66 -4.99 -7.03 -8.75 -6.20 0.82 1.18 2.95 2.59 3.61 4.20 5.01 6.64 3.41 -7.43 -17.78 -16.08 -12.38 -10.70 -11.39 -10.18 -9.61 -9.85 -9.84 -9.34 -9.68 -7.26 -5.92 -6.35 -5.52 -4.45 -2.70 -2.66 -3.57 -4.41 -5.14 -3.86 -2.17 -1.10 -1.71
29.42 29.79 31.32 32.56 30.59 22.87 19.43 18.86 18.47 11.34 0.30 -1.68 -0.59 -0.69 -3.87 -8.29 -3.71 -2.83 -6.39 0.02 1.09 1.18 0.96 1.48 0.06 -2.94 -15.73 -16.20 -20.99 -20.23 -18.94 -18.25 -14.43 -11.42 -9.84 -9.57 -9.25 -10.31 -8.24 -6.05 -4.82 -5.50 -5.59 -5.00 -2.99 -3.30 -2.76 -2.90 -3.78 -3.72 -3.84 -2.88 -3.84 -3.61
32.56 32.06 30.91 30.52 29.08 18.25 10.99 11.75 16.42 5.41 -2.59 0.47 -1.37 -5.06 -3.11 -4.87 -5.54 -9.13 -9.57 -2.13 0.40 -1.40 -5.29 -8.62 -17.67 -19.09 -18.69 -18.41 -15.93 -14.79 -11.94 -10.02 -11.13 -13.87 -13.31 -9.90 -8.07 -7.23 -6.30 -4.51 -5.75 -5.73 -4.99 -2.27 -2.12 -1.11 -2.43 -3.07 -2.65 -3.10 -3.28 -4.29 -4.69 -4.88
23.57 24.40 26.24 23.65 17.38 12.29 7.22 7.21 5.94 3.94 1.57 -2.81 -1.59 -0.71 -4.66 -4.13 -12.31 -12.76 -10.51 -2.90 -5.03 -8.96 -13.66 -21.75 -22.95 -19.10 -19.22 -20.76 -16.97 -14.75 -10.02 -9.23 -11.42 -12.06 -12.45 -11.36 -7.00 -5.47 -4.08 -4.89 -6.04 -6.29 -6.31 -3.88 -4.54 -3.81 -3.09 -3.87 -2.54 -2.04 -3.34 -3.87 -3.35 -3.46
18.94 21.49 15.95 16.99 13.27 7.22 4.58 4.96 4.89 7.11 0.90 -4.54 -3.65 -4.87 -12.88 -17.53 -18.58 -16.82 -6.44 -11.14 -11.65 -18.79 -20.55 -20.55 -21.44 -19.90 -19.73 -18.67 -14.18 -12.27 -10.84 -10.18 -8.35 -6.56 -6.32 -7.37 -9.14 -7.26 -6.39 -7.11 -8.48 -9.73 -8.12 -4.66 -4.06 -4.57 -3.92 -2.34 -1.32 -1.57 -2.38 -2.99 -2.00 -2.44
15.61 14.22 7.18 3.61 0.17 -1.72 -5.43 4.68 -1.63 -0.96 -5.45 -6.29 -7.28 -11.22 -14.73 -18.78 -12.93 -5.97 -10.56 -19.20 -20.70 -15.26 -18.98 -18.63 -17.31 -15.46 -11.38 -9.12 -8.63 -8.87 -7.90 -8.13 -8.64 -9.24 -10.06 -9.71 -6.95 -4.21 -4.91 -6.63 -7.74 -10.46 -10.64 -7.14 -2.76 -3.58 -4.11 -2.33 -2.34 -2.29 -1.95 -2.23 -2.69 -3.21
7.65 -2.00 -5.68 -7.63 -5.97 -10.02 -4.36 -6.86 -1.79 -3.31 -4.57 -6.67 -9.22 -16.47 -17.73 -17.51 -5.57 -10.96 -20.54 -23.82 -17.84 -12.68 -13.08 -13.48 -11.24 -10.20 -8.98 -8.58 -9.05 -8.66 -8.14 -6.84 -7.63 -8.44 -9.82 -10.60 -10.15 -7.46 -4.81 -5.25 -7.35 -8.87 -9.65 -6.94 -5.39 -5.07 -5.37 -5.51 -5.05 -5.49 -5.51 -5.96 -5.79 -6.01
-6.92 -18.82 -12.29 -16.60 -10.59 -12.29 -13.52 -15.97 -14.03 -8.44 -12.12 -9.89 -11.61 -13.39 -15.24 -11.77 -13.92 -19.50 -19.39 -21.09 -16.57 -14.87 -11.79 -11.66 -9.96 -8.72 -11.09 -9.65 -7.25 -7.51 -6.49 -8.14 -8.93 -10.43 -10.23 -10.35 -10.90 -8.70 -8.86 -7.77 -7.17 -9.71 -10.28 -11.16 -10.50 -9.08 -8.87 -8.67 -9.35 -10.66 -11.09 -10.67 -10.06 -10.44
-22.28 -21.87 -24.29 -18.21 -16.95 -20.04 -16.70 -23.09 -22.09 -17.11 -12.13 -14.74 -16.62 -14.96 -13.38 -13.75 -17.63 -20.79 -19.58 -16.64 -15.07 -13.05 -12.69 -12.35 -12.48 -10.63 -8.96 -9.03 -10.56 -9.23 -9.16 -8.03 -8.72 -8.08 -9.69 -10.25 -11.71 -13.27 -13.65 -13.34 -13.55 -10.64 -10.20 -12.51 -11.68 -12.46 -11.74 -11.14 -12.05 -13.56 -14.74 -15.83 -14.21 -13.88
-23.59 -26.04 -21.03 -18.12 -15.28 -13.34 -18.00 -17.13 -17.20 -15.86 -17.95 -18.85 -20.85 -17.42 -13.75 -17.60 -22.66 -18.27 -15.49 -9.92 -10.85 -11.85 -8.90 -7.84 -8.49 -8.36 -8.97 -8.78 -7.65 -7.58 -8.08 -8.22 -8.74 -7.77 -7.08 -8.94 -10.56 -11.60 -13.48 -16.33 -16.91 -14.40 -11.64 -14.32 -14.86 -14.37 -16.71 -16.82 -15.80 -16.42 -18.31 -20.66 -23.80 -23.25
-23.24 -24.68 -25.83 -26.39 -27.67 -27.33 -29.85 -25.18 -23.87 -26.91 -24.40 -21.47 -23.35 -21.74 -17.88 -18.89 -20.45 -16.24 -10.65 -7.40 -11.14 -9.68 -8.56 -7.04 -6.75 -7.04 -7.71 -7.08 -8.23 -9.69 -10.20 -9.86 -8.37 -8.99 -9.00 -9.39 -12.07 -13.93 -16.59 -17.14 -15.57 -5.90 -13.37 -15.37 -15.10 -11.05 -15.06 -20.46 -23.76 -24.27 -24.49 -23.45 -23.50 -25.11
-27.08 -26.91 -25.43 -26.31 -27.33 -25.49 -27.03 -28.12 -29.71 -27.88 -24.49 -29.66 -27.66 -23.06 -21.32 -18.53 -18.07 -17.48 -12.04 -8.61 -9.68 -10.13 -11.14 -10.26 -8.23 -9.54 -9.83 -9.14 -9.88 -12.39 -14.97 -16.85 -15.71 -16.70 -18.09 -17.34 -17.27 -14.79 -16.61 -19.93 -21.20 -20.75 -23.26 -27.46 -14.19 -7.75 -6.47 -16.76 -21.73 -26.54 -29.16 -29.04 -28.20 -32.23
-26.29 -28.12 -22.57 -26.40 -25.68 -27.35 -27.87 -29.49 -30.16 -30.18 -27.90 -28.05 -28.94 -22.46 -20.15 -20.71 -18.27 -14.87 -13.54 -13.89 -13.66 -12.68 -12.71 -14.01 -16.64 -18.09 -18.41 -19.87 -18.96 -16.49 -19.88 -19.49 -20.38 -18.79 -21.64 -21.72 -18.57 -20.14 -22.20 -20.49 -20.61 -22.06 -25.09 -30.00 -21.71 -21.89 -13.72 -21.37 -21.85 -27.78 -28.33 -29.29 -29.97 -30.65
-31.38 -34.39 -29.69 -28.61 -28.41 -31.07 -33.82 -37.78 -37.99 -34.90 -33.48 -35.75 -37.05 -33.03 -29.57 -28.96 -23.57 -23.29 -14.69 -16.76 -18.47 -24.63 -23.31 -23.31 -25.45 -28.62 -26.54 -29.00 -30.62 -30.68 -21.75 -24.56 -23.81 -21.99 -24.15 -23.95 -23.41 -21.74 -20.18 -19.32 -19.62 -24.06 -27.50 -27.55 -26.59 -29.29 -26.01 -26.10 -28.48 -30.23 -30.62 -29.60 -27.73 -26.82
-35.41 -37.58 -31.43 -27.12 -28.40 -34.58 -37.72 -37.51 -37.54 -36.07 -35.93 -35.75 -33.80 -38.88 -33.15 -31.45 -27.46 -22.66 -21.47 -21.55 -26.70 -25.23 -18.92 -23.05 -26.68 -15.23 -19.54 -17.37 -24.15 -22.45 -16.63 -20.88 -23.36 -18.97 -20.53 -18.33 -18.49 -17.62 -16.63 -16.51 -19.33 -22.95 -23.96 -21.15 -21.41 -21.99 -23.02 -24.00 -24.90 -25.50 -24.96 -24.48 -23.99 -24.80
-40.10 -42.27 -41.42 -35.47 -31.88 -30.78 -36.41 -36.57 -34.38 -33.86 -35.63 -36.24 -34.77 -39.93 -39.32 -33.53 -24.83 -19.93 -20.77 -23.80 -18.92 -15.69 -14.45 -14.73 -14.10 -17.83 -19.35 -18.82 -18.73 -18.03 -16.62 -16.81 -17.72 -8.86 -6.07 -6.77 -8.61 -8.91 -10.83 -13.17 -15.96 -18.32 -18.65 -17.29 -16.55 -18.29 -19.79 -21.50 -21.50 -21.43 -22.12 -22.31 -22.13 -22.14
MSLP
1013.57 1013.38 1013.25 1013.03 1012.97 1012.86 1012.85 1012.69 1012.69 1012.65 1012.73 1012.76 1012.71 1012.65 1012.55 1012.51 1012.66 1013.17 1013.04 1013.24 1013.74 1013.05 1011.96 1012.27 1012.00 1012.19 1012.17 1012.21 1012.07 1011.60 1011.57 1010.69 1010.18 1009.48 1008.28 1007.02 1005.35 1004.79 1003.87 1002.83 1002.26 1002.26 1001.18 1000.09 999.68 998.51 997.56 997.65 996.36 997.57 997.93 996.70 997.00 996.88
1012.60 1012.35 1012.22 1012.15 1012.01 1011.92 1011.93 1011.89 1011.79 1011.79 1011.83 1011.87 1011.69 1011.60 1011.76 1011.71 1011.79 1012.22 1012.44 1012.55 1012.63 1012.79 1011.79 1011.58 1011.27 1010.94 1010.90 1010.97 1011.43 1011.51 1011.56 1011.41 1010.72 1010.30 1009.52 1008.45 1007.52 1007.23 1006.29 1004.97 1003.98 1004.06 1003.69 1003.19 1002.51 1000.11 999.45 999.03 999.64 999.59 999.74 998.61 998.43 998.14
1011.56 1011.39 1011.29 1011.02 1010.92 1010.93 1011.03 1011.04 1011.03 1011.00 1010.96 1010.83 1010.85 1010.79 1010.86 1011.00 1011.06 1011.32 1011.54 1011.74 1012.13 1011.79 1011.19 1010.88 1010.10 1009.49 1009.80 1009.81 1010.14 1010.75 1010.84 1010.69 1010.53 1010.48 1010.49 1009.94 1008.94 1008.60 1007.68 1006.45 1005.78 1005.09 1004.17 1003.77 1003.07 1000.71 1000.30 999.19 997.75 998.21 999.82 999.58 999.15 998.56
1010.68 1010.57 1010.32 1010.17 1010.00 1009.86 1009.80 1009.96 1010.04 1009.97 1010.03 1009.98 1010.14 1009.98 1010.02 1010.03 1010.19 1010.33 1010.59 1010.84 1011.47 1011.18 1010.32 1009.01 1008.53 1008.53 1008.33 1008.57 1009.01 1009.26 1009.44 1009.83 1010.16 1010.40 1010.49 1010.15 1009.80 1008.91 1008.22 1007.66 1007.27 1006.68 1005.36 1003.65 1002.44 1002.09 1000.66 1000.68 1000.22 1000.28 999.93 1000.45 999.09 999.57
1009.71 1009.55 1009.44 1009.29 1009.07 1009.04 1008.99 1008.94 1008.96 1009.04 1009.05 1009.09 1009.10 1008.97 1009.02 1009.04 1009.12 1009.29 1009.47 1009.61 1010.08 1010.90 1009.40 1008.95 1008.58 1008.06 1007.93 1008.07 1008.26 1008.47 1008.76 1009.06 1009.67 1009.90 1009.87 1009.59 1009.04 1008.81 1008.04 1007.59 1006.94 1006.52 1005.35 1004.32 1002.94 1002.71 1002.41 1001.69 1001.53 1001.53 1001.39 1000.55 1001.13 1001.07
1008.64 1008.51 1008.48 1008.43 1008.13 1008.11 1008.06 1008.01 1008.01 1007.98 1007.99 1008.05 1008.13 1008.04 1008.10 1008.22 1008.36 1008.92 1008.46 1007.94 1008.41 1009.21 1009.35 1008.26 1007.29 1006.96 1006.93 1007.25 1007.33 1007.72 1007.98 1008.22 1008.79 1009.03 1008.73 1008.22 1007.94 1007.86 1006.97 1006.21 1005.98 1005.65 1004.91 1004.37 1004.13 1004.72 1004.03 1003.32 1002.67 1002.34 1002.94 1002.74 1002.29 1001.37
1007.59 1007.48 1007.27 1007.32 1007.21 1007.10 1007.00 1007.02 1006.94 1006.89 1006.97 1007.01 1007.09 1007.06 1007.10 1007.13 1007.52 1007.91 1007.36 1006.94 1007.03 1008.38 1008.29 1007.66 1006.86 1005.94 1006.02 1006.48 1006.90 1007.10 1007.23 1007.46 1007.85 1008.02 1007.75 1007.38 1006.89 1006.79 1006.33 1005.85 1005.42 1005.03 1005.36 1005.85 1006.15 1005.98 1004.85 1004.50 1004.97 1004.37 1004.00 1003.56 1002.96 1001.95
1006.49 1006.39 1006.22 1006.23 1006.21 1006.13 1006.00 1005.97 1005.99 1005.94 1006.01 1006.10 1006.10 1006.11 1006.06 1006.07 1006.20 1006.03 1005.95 1006.57 1007.16 1007.80 1007.86 1006.99 1006.32 1006.47 1006.25 1006.87 1006.97 1006.38 1006.61 1006.66 1006.81 1006.69 1006.51 1006.28 1006.18 1006.10 1005.65 1005.18 1005.61 1006.50 1006.89 1006.79 1007.43 1007.96 1007.82 1006.84 1006.18 1005.57 1005.16 1004.64 1003.65 1002.40
1005.52 1005.37 1005.29 1005.29 1005.19 1005.15 1005.11 1005.10 1005.10 1005.12 1005.17 1005.13 1005.23 1005.27 1005.36 1005.17 1005.18 1004.87 1004.93 1005.24 1006.16 1007.25 1006.72 1006.38 1006.49 1006.42 1006.25 1006.23 1005.99 1006.10 1006.11 1006.24 1005.80 1005.81 1005.67 1006.02 1006.10 1005.65 1005.02 1005.87 1006.98 1007.96 1008.64 1008.61 1008.09 1008.31 1007.64 1007.51 1006.95 1005.97 1005.67 1005.15 1004.77 1002.98
1004.37 1004.27 1004.12 1004.07 1004.06 1004.11 1004.17 1004.18 1004.23 1004.36 1004.47 1004.59 1005.05 1005.42 1004.59 1004.11 1003.66 1004.30 1005.12 1005.73 1005.96 1005.79 1005.69 1005.63 1005.92 1006.29 1006.27 1005.96 1005.97 1006.36 1005.77 1005.97 1005.61 1005.63 1005.46 1005.76 1005.60 1005.45 1006.57 1007.53 1008.44 1009.18 1009.67 1010.09 1009.87 1008.54 1008.42 1007.77 1007.45 1006.20 1005.57 1005.66 1005.27 1004.12
1003.13 1003.08 1003.05 1003.05 1003.07 1003.01 1003.17 1003.18 1003.28 1003.54 1003.98 1004.63 1004.85 1004.34 1003.94 1003.79 1004.12 1004.29 1005.15 1005.78 1006.01 1006.23 1005.80 1005.45 1005.48 1005.44 1004.83 1005.22 1005.54 1005.50 1005.36 1005.45 1005.61 1005.57 1006.03 1006.35 1006.35 1007.01 1008.28 1009.22 1010.07 1010.58 1010.98 1011.26 1011.35 1010.85 1010.37 1009.60 1008.26 1006.83 1004.91 1005.45 1005.05 1004.31
1002.01 1001.88 1001.91 1001.94 1001.86 1001.97 1002.09 1002.16 1002.29 1002.79 1003.46 1003.85 1004.06 1004.01 1003.87 1003.95 1004.21 1004.89 1005.40 1006.07 1006.24 1006.16 1005.68 1005.45 1005.30 1005.15 1004.86 1004.47 1005.01 1005.07 1005.28 1005.59 1005.68 1005.58 1006.98 1007.41 1007.84 1009.38 1010.57 1011.36 1011.78 1011.99 1011.97 1011.80 1011.62 1010.72 1009.99 1009.49 1008.78 1007.59 1006.24 1004.96 1004.49 1003.58
1000.80 1000.88 1000.81 1000.85 1000.87 1000.95 1000.97 1001.16 1001.32 1001.78 1002.78 1003.70 1003.97 1003.88 1003.78 1003.63 1003.97 1004.99 1005.71 1006.63 1006.62 1006.00 1005.85 1005.74 1005.68 1005.28 1004.99 1004.84 1005.04 1004.97 1005.06 1005.44 1005.65 1007.21 1008.15 1008.56 1010.04 1011.49 1012.50 1012.87 1012.74 1012.68 1012.33 1011.93 1011.19 1010.62 1009.73 1008.60 1008.03 1007.32 1005.81 1005.04 1003.91 1002.77
999.85 999.77 999.85 999.91 999.91 999.83 1000.02 1000.27 1000.82 1001.76 1002.41 1003.06 1003.20 1003.35 1003.84 1004.33 1005.04 1005.45 1005.84 1006.28 1006.54 1006.39 1006.56 1006.39 1006.04 1005.59 1005.11 1005.04 1004.56 1004.82 1004.93 1005.65 1007.15 1008.76 1009.44 1010.74 1012.66 1013.35 1013.64 1013.64 1013.41 1012.65 1012.38 1011.71 1010.91 1009.89 1008.89 1007.97 1006.81 1006.13 1005.29 1004.29 1003.14 1002.00
999.02 998.94 999.01 999.24 999.17 999.28 999.41 999.90 1000.53 1001.20 1001.97 1002.71 1003.49 1004.16 1004.74 1005.19 1006.13 1006.89 1007.27 1007.36 1008.24 1007.76 1007.46 1007.05 1006.51 1005.83 1005.50 1005.43 1005.07 1005.55 1006.55 1007.68 1009.01 1010.52 1011.95 1013.35 1013.98 1014.20 1014.17 1014.01 1013.68 1013.05 1012.31 1011.43 1010.41 1009.31 1008.24 1007.30 1006.31 1005.13 1004.39 1003.52 1002.38 1001.33
998.34 998.43 998.48 998.54 998.67 998.50 999.30 1000.22 1001.09 1001.32 1001.91 1002.99 1004.19 1005.65 1006.50 1007.18 1008.22 1008.76 1009.19 1009.72 1009.79 1008.93 1008.26 1007.91 1007.24 1006.56 1006.06 1005.93 1006.59 1007.71 1009.03 1010.01 1011.55 1013.52 1014.56 1014.76 1014.80 1014.76 1014.48 1014.04 1013.44 1012.75 1011.91 1010.82 1009.84 1008.82 1007.69 1006.67 1005.69 1004.64 1003.77 1002.76 1001.78 1000.99
998.50 998.27 997.92 997.92 998.25 998.64 999.77 1000.59 1001.34 1002.14 1003.08 1004.42 1006.69 1007.96 1008.88 1009.83 1010.76 1011.51 1011.57 1011.37 1010.82 1010.22 1009.58 1008.85 1008.30 1007.62 1007.08 1007.71 1009.01 1010.26 1011.92 1013.73 1014.74 1015.25 1015.54 1015.77 1015.31 1014.68 1014.21 1013.53 1012.78 1012.02 1011.10 1010.22 1009.14 1007.99 1006.95 1006.04 1005.24 1004.34 1003.37 1002.42 1001.59 1001.04
998.32 997.96 997.38 998.01 998.85 999.33 1000.39 1000.86 1001.88 1003.05 1004.77 1006.91 1008.41 1010.19 1011.01 1011.55 1012.29 1012.61 1012.75 1012.37 1011.85 1011.30 1010.87 1010.52 1010.35 1010.07 1010.35 1011.34 1012.56 1014.53 1015.35 1015.86 1016.16 1016.25 1016.00 1015.54 1015.10 1014.58 1013.95 1013.02 1012.08 1011.17 1010.33 1009.37 1008.43 1007.41 1006.56 1005.80 1005.05 1004.29 1003.62 1002.78 1002.01 1001.49
998.50 998.45 998.13 998.33 999.07 999.96 1001.18 1002.44 1002.97 1004.46 1007.27 1008.90 1010.29 1011.38 1012.34 1013.13 1013.69 1013.86 1013.75 1013.37 1013.08 1012.87 1012.45 1012.26 1012.71 1013.31 1014.32 1015.32 1016.28 1016.69 1017.21 1017.21 1016.74 1016.33 1015.91 1015.32 1014.71 1014.15 1013.26 1012.33 1011.39 1010.60 1009.83 1008.90 1007.85 1007.08 1006.40 1005.82 1005.28 1004.75 1004.14 1003.37 1002.77 1002.36
998.65 998.74 999.08 999.71 999.94 1001.11 1002.71 1003.97 1004.21 1006.05 1008.50 1009.97 1011.11 1012.14 1013.07 1013.87 1014.49 1014.67 1014.49 1014.11 1013.81 1013.82 1014.18 1015.03 1016.13 1016.96 1017.30 1017.75 1018.02 1018.12 1017.84 1017.54 1017.11 1016.36 1015.57 1014.90 1014.32 1013.54 1012.75 1011.89 1011.25 1010.55 1009.57 1008.43 1007.73 1007.05 1006.32 1005.79 1005.50 1005.11 1004.65 1004.20 1003.61 1003.21
1000.20 1000.67 1000.50 1000.67 1002.27 1003.32 1004.96 1005.89 1006.70 1008.04 1009.51 1010.92 1011.96 1012.62 1013.86 1014.50 1015.01 1015.29 1015.31 1015.04 1015.08 1015.92 1016.81 1017.76 1018.09 1018.38 1018.56 1018.43 1018.13 1018.05 1017.84 1017.48 1017.20 1016.84 1015.99 1014.93 1014.12 1013.45 1012.56 1012.09 1011.46 1010.68 1009.89 1008.87 1008.04 1007.29 1006.79 1006.39 1005.97 1005.62 1005.28 1004.85 1004.55 1004.28
1001.97 1001.91 1002.31 1002.66 1003.86 1005.45 1006.91 1008.04 1008.26 1009.03 1010.21 1011.55 1012.49 1013.26 1014.40 1015.49 1015.66 1015.86 1015.86 1016.10 1016.91 1017.74 1018.13 1018.39 1018.71 1018.63 1018.61 1018.41 1017.99 1017.57 1017.31 1017.00 1016.62 1016.13 1015.74 1015.31 1014.55 1013.67 1012.92 1012.56 1012.01 1011.50 1010.67 1009.67 1008.87 1008.30 1007.69 1007.14 1006.62 1006.24 1005.91 1005.68 1005.40 1005.11
1002.89 1003.14 1004.69 1005.59 1006.49 1007.82 1009.97 1009.31 1009.63 1010.35 1011.13 1012.27 1013.04 1014.11 1015.17 1015.69 1015.70 1015.96 1016.59 1017.42 1017.95 1018.05 1018.38 1018.71 1018.47 1018.11 1018.05 1017.70 1017.49 1017.33 1017.05 1016.71 1016.38 1016.19 1015.98 1015.52 1014.87 1014.19 1013.70 1013.41 1013.01 1012.44 1011.60 1010.68 1009.90 1009.31 1008.76 1008.23 1007.71 1007.22 1006.87 1006.58 1006.39 1006.22
1004.95 1007.15 1008.73 1009.63 1010.17 1011.39 1011.38 1011.65 1011.65 1011.96 1012.41 1013.02 1013.88 1014.93 1015.66 1016.02 1016.03 1016.42 1017.48 1017.84 1018.03 1018.18 1018.22 1018.31 1018.09 1017.84 1017.58 1017.44 1017.35 1017.23 1017.05 1016.82 1016.66 1016.51 1016.35 1015.95 1015.34 1014.77 1014.36 1014.09 1013.86 1013.59 1013.21 1012.26 1011.30 1010.63 1010.06 1009.56 1009.13 1008.69 1008.43 1008.21 1008.05 1007.90
1007.94 1013.12 1013.07 1013.56 1013.69 1013.59 1013.83 1014.08 1014.00 1013.77 1014.27 1014.55 1015.02 1015.68 1016.19 1016.39 1016.55 1017.06 1017.64 1017.93 1017.95 1018.21 1018.08 1018.08 1017.94 1017.79 1017.65 1017.49 1017.37 1017.27 1017.23 1017.21 1017.02 1016.93 1016.88 1016.59 1016.19 1015.54 1015.05 1014.68 1014.31 1014.43 1014.10 1013.28 1012.61 1012.18 1011.77 1011.27 1010.91 1010.62 1010.39 1010.20 1010.01 1009.87
1013.13 1016.33 1016.59 1016.57 1016.41 1016.21 1016.56 1016.54 1016.45 1016.37 1016.02 1016.23 1016.60 1016.68 1016.71 1016.86 1017.15 1017.27 1017.24 1017.41 1017.65 1017.78 1017.92 1017.90 1017.86 1017.73 1017.65 1017.71 1017.71 1017.55 1017.52 1017.44 1017.26 1016.98 1017.08 1016.97 1016.90 1016.79 1016.46 1016.00 1015.50 1014.98 1015.03 1014.95 1014.36 1013.76 1013.26 1012.93 1012.69 1012.48 1012.37 1012.18 1011.93 1011.62
1016.39 1018.17 1018.58 1018.49 1018.37 1018.20 1018.56 1018.62 1018.50 1018.18 1018.14 1018.20 1018.27 1017.82 1017.53 1017.64 1017.48 1017.09 1017.05 1017.07 1017.30 1017.39 1017.55 1017.65 1017.78 1017.79 1017.80 1017.79 1017.76 1017.71 1017.64 1017.48 1017.35 1017.05 1016.90 1017.08 1017.25 1017.25 1017.23 1017.13 1016.82 1016.44 1015.94 1015.69 1015.21 1014.67 1014.41 1014.08 1013.82 1013.75 1013.71 1013.50 1013.40 1013.25
1018.71 1019.70 1020.07 1020.32 1020.05 1020.23 1020.48 1020.58 1020.57 1020.44 1020.44 1020.28 1020.02 1019.33 1018.62 1018.08 1017.81 1017.28 1016.98 1017.00 1017.22 1017.34 1017.49 1017.60 1017.72 1017.82 1017.87 1017.83 1017.83 1017.85 1017.61 1017.41 1016.88 1016.72 1016.79 1016.89 1016.93 1017.05 1017.14 1017.08 1016.92 1016.52 1016.32 1016.01 1015.59 1014.93 1014.63 1014.48 1014.46 1014.50 1014.61 1014.53 1014.29 1013.88
1020.57 1021.03 1021.08 1021.49 1021.43 1021.59 1022.07 1022.27 1022.48 1022.26 1021.82 1021.92 1021.70 1020.51 1019.58 1018.48 1017.81 1017.56 1017.20 1017.23 1017.36 1017.55 1017.76 1017.78 1017.81 1017.91 1017.99 1017.90 1017.83 1017.82 1017.88 1017.97 1017.79 1017.58 1017.65 1017.54 1017.38 1017.18 1016.93 1016.96 1016.87 1016.70 1016.49 1016.30 1015.64 1015.00 1014.37 1014.45 1014.34 1014.48 1014.76 1014.79 1014.72 1014.45
1022.45 1022.47 1022.30 1022.50 1022.57 1022.88 1023.02 1023.07 1023.32 1022.98 1022.73 1022.74 1022.54 1021.61 1020.42 1019.02 1017.58 1017.14 1017.25 1017.42 1017.66 1017.75 1017.86 1017.90 1018.05 1018.53 1018.43 1018.43 1018.28 1018.14 1017.71 1017.90 1017.90 1017.90 1017.85 1017.57 1017.36 1016.90 1016.86 1016.63 1016.38 1016.07 1015.93 1016.00 1015.87 1015.50 1015.00 1014.81 1014.68 1014.91 1014.84 1014.93 1014.80 1014.61
1023.47 1023.43 1023.45 1023.18 1023.53 1023.50 1023.88 1024.17 1024.02 1023.72 1023.49 1023.32 1023.17 1023.16 1021.81 1020.23 1018.34 1016.97 1016.90 1016.87 1017.12 1017.60 1018.10 1018.33 1018.49 1018.67 1018.56 1018.36 1018.62 1018.75 1018.02 1017.53 1017.33 1017.27 1017.23 1017.11 1016.88 1016.60 1016.26 1015.92 1015.67 1015.61 1015.65 1015.89 1015.73 1015.38 1015.14 1014.95 1014.83 1015.01 1015.11 1014.93 1014.55 1014.18
1024.31 1024.77 1025.12 1024.61 1024.43 1024.26 1024.42 1024.53 1024.35 1024.07 1023.75 1023.90 1023.60 1023.60 1022.37 1021.70 1020.17 1017.64 1016.28 1016.65 1017.48 1017.75 1017.37 1017.59 1017.74 1017.43 1016.95 1017.00 1017.24 1017.07 1016.51 1016.70 1016.65 1016.37 1016.30 1016.12 1015.79 1015.31 1015.04 1014.80 1014.65 1014.71 1014.85 1014.83 1014.64 1014.45 1014.33 1014.26 1014.21 1014.26 1013.99 1013.65 1013.37 1013.10
1025.45 1025.73 1025.85 1025.60 1025.20 1025.06 1025.00 1024.95 1024.44 1024.01 1023.81 1023.58 1023.72 1023.44 1022.98 1022.54 1020.97 1017.72 1016.12 1015.92 1016.18 1016.19 1016.26 1016.26 1016.14 1016.08 1016.04 1016.00 1015.96 1015.75 1015.65 1015.43 1015.17 1015.09 1014.79 1014.57 1014.26 1013.92 1013.71 1013.47 1013.31 1013.31 1013.41 1013.30 1013.15 1013.08 1013.05 1013.01 1012.93 1012.69 1012.53 1012.36 1012.02 1011.73
Wind_Speed
24 23 26 26 24 22 21 21 20 19 17 18 19 19 18 17 16 9 6 8 7 4 12 10 12 12 8 8 10 2 6 2 4 10 11 16 14 7 10 13 15 9 10 9 15 20 29 16 9 15 16 17 21 21
24 24 23 26 25 23 21 22 21 20 19 20 20 20 19 19 18 15 8 6 8 7 5 4 9 10 11 14 11 3 3 2 4 4 6 6 8 8 8 7 1 7 2 5 7 7 9 9 12 18 10 13 13 14
24 23 25 24 26 25 24 22 22 22 22 21 22 22 20 20 19 15 8 5 3 5 7 9 13 20 17 18 11 4 4 6 5 5 3 5 9 4 4 4 14 10 14 8 15 2 25 32 28 14 15 14 14 10
23 24 25 24 25 25 26 25 25 23 24 21 23 22 20 20 20 17 7 5 5 3 5 6 1 6 6 11 15 14 15 10 8 4 4 3 2 6 8 9 9 11 18 14 23 21 22 15 15 20 23 18 16 18
23 22 24 23 24 24 24 25 24 25 23 23 24 23 20 20 19 13 7 6 8 7 4 2 1 6 6 7 13 13 14 14 8 7 6 7 3 5 6 12 12 12 15 14 18 21 20 23 20 18 16 17 15 14
23 23 23 25 24 24 23 23 23 24 24 23 23 22 20 20 20 6 5 8 11 10 5 5 4 8 10 15 15 14 12 11 9 4 4 6 13 8 6 9 13 15 19 18 19 13 14 15 12 13 17 20 17 19
25 24 24 24 25 25 23 24 25 24 24 22 22 22 22 21 9 8 3 3 9 9 5 5 4 5 10 6 3 5 9 6 7 9 8 12 12 12 12 15 21 20 10 12 10 14 10 8 12 22 18 19 20 20
24 24 24 23 25 24 23 23 24 23 21 21 21 21 21 22 19 13 12 11 7 2 3 3 2 1 5 3 3 5 5 6 6 7 4 7 7 9 10 21 11 7 11 10 10 10 12 19 16 19 17 16 21 21
24 24 23 24 23 22 23 22 21 20 20 19 19 19 13 6 6 4 11 19 7 5 3 4 5 5 3 3 2 1 2 4 5 8 11 2 6 8 13 8 1 3 4 13 17 12 10 12 18 20 18 18 18 22
23 23 23 23 23 22 21 21 21 19 18 15 5 2 4 4 8 15 2 3 4 3 4 2 2 2 3 4 4 2 3 4 3 6 3 5 12 18 3 4 3 4 7 10 12 14 16 20 16 23 23 18 17 20
23 24 23 22 23 22 23 22 19 17 6 2 3 5 1 10 2 2 4 5 4 2 3 4 7 6 3 5 5 4 4 3 4 7 6 4 4 3 6 5 6 8 9 10 10 14 17 18 21 23 26 20 19 20
24 23 23 24 23 23 23 21 18 8 4 4 2 1 2 4 2 4 5 3 3 7 3 4 4 4 3 3 3 3 4 2 6 2 4 3 5 7 7 7 9 10 11 13 12 17 18 20 19 20 23 23 21 21
22 23 21 23 21 23 22 19 16 13 9 3 3 4 4 3 6 6 7 3 3 3 3 1 2 2 1 2 3 4 6 6 2 2 6 6 6 7 6 7 9 10 10 13 16 16 19 20 18 18 21 19 21 20
21 21 21 21 20 18 19 17 11 13 4 4 4 7 6 4 4 5 4 4 1 3 3 1 1 3 4 3 5 4 6 2 3 3 7 3 4 4 6 8 10 15 14 16 17 18 19 19 19 19 17 17 18 19
19 18 16 14 14 17 14 12 14 4 4 3 3 4 3 2 4 2 1 4 3 2 2 1 2 3 3 3 4 2 2 5 6 6 2 4 8 8 11 11 12 14 14 16 16 17 18 19 18 19 16 16 16 12
14 11 9 12 17 17 18 13 3 1 1 2 1 1 1 3 1 3 4 3 4 3 2 1 2 3 6 4 4 7 4 7 3 2 3 7 9 11 12 13 13 13 15 16 16 17 17 17 17 17 16 13 11 9
2 3 8 14 18 19 17 4 2 2 3 2 2 3 1 4 3 2 2 2 4 2 1 2 5 7 3 5 4 3 3 2 3 6 4 4 11 15 14 14 13 15 15 15 15 15 16 15 14 12 13 13 11 8
0 5 16 22 11 9 2 2 3 3 3 3 1 1 3 2 3 2 2 3 3 2 2 1 3 4 4 4 2 2 3 5 5 5 8 10 11 11 10 14 14 14 14 14 14 13 12 11 10 8 12 12 8 9
4 5 9 11 6 4 3 3 3 4 3 3 4 3 3 2 3 2 1 2 1 1 2 1 3 2 0 1 1 3 3 3 9 9 10 10 9 10 12 13 12 12 12 13 11 8 7 8 7 7 8 7 6 7
16 17 17 17 7 3 4 3 3 5 3 2 3 2 3 3 2 1 2 2 1 1 3 2 1 1 1 2 1 4 6 6 7 8 9 8 8 11 12 11 9 11 9 9 8 8 6 6 6 6 6 7 6 7
9 8 12 7 4 6 5 3 4 3 3 4 3 1 3 2 2 2 2 3 2 3 1 2 2 3 2 3 3 3 6 5 6 5 9 10 10 9 9 8 9 8 8 7 8 8 8 7 7 6 6 6 6 6
3 11 4 7 4 4 5 5 3 3 3 3 2 2 3 2 0 1 2 3 2 1 2 1 2 2 3 4 4 3 3 4 6 5 7 7 6 8 8 8 8 8 8 8 8 7 7 7 7 6 6 6 7 7
6 5 5 7 7 7 2 4 4 4 4 2 1 3 1 1 0 2 3 2 3 1 2 2 3 4 3 3 3 2 3 5 3 4 5 5 5 5 5 7 7 8 8 9 9 8 7 11 9 8 7 8 7 8
12 9 8 6 6 3 2 4 3 3 3 2 2 2 1 1 1 1 1 2 3 1 1 1 2 2 1 1 2 3 4 4 3 3 5 5 5 6 6 5 7 7 8 7 8 8 9 9 11 9 9 9 9 9
10 11 6 6 4 4 4 3 4 3 3 2 2 2 0 1 1 0 2 3 1 1 0 1 1 1 1 2 1 1 2 3 4 4 5 5 5 4 5 5 5 7 8 9 11 10 9 8 9 9 10 9 10 10
10 4 5 5 3 4 3 3 3 2 2 2 2 0 1 0 1 4 3 3 2 2 1 1 0 1 1 1 2 2 3 3 3 1 1 3 4 4 5 6 6 5 8 7 7 8 9 8 7 8 8 9 11 8
6 4 3 1 2 1 3 3 1 1 2 2 1 2 1 1 4 3 1 2 2 2 2 1 1 0 1 1 2 2 3 3 4 4 1 2 1 0 1 2 5 4 7 7 7 4 5 6 6 6 5 3 3 4
3 4 4 3 4 1 4 2 2 1 0 1 2 1 2 4 4 2 1 2 3 2 1 2 2 1 2 2 2 2 3 4 5 2 2 1 3 3 2 2 3 8 5 5 6 6 4 3 3 4 3 4 4 3
4 3 2 3 2 3 1 3 3 2 1 3 3 2 3 3 2 2 2 2 2 1 1 2 2 1 2 2 3 2 2 1 3 3 2 3 3 3 2 2 3 3 3 3 8 8 7 1 2 2 3 3 4 3
3 2 2 2 3 1 4 3 3 2 1 2 1 3 3 4 4 2 2 2 3 4 3 2 2 2 2 1 3 5 2 4 4 4 3 4 5 4 3 4 4 4 2 2 4 5 7 4 5 4 4 4 3 3
0 3 2 1 2 3 2 2 2 1 1 1 0 3 4 4 5 3 4 4 3 3 3 3 3 4 4 3 3 2 5 3 6 7 6 4 5 6 6 6 5 4 3 4 4 3 3 2 2 3 4 5 6 4
3 2 2 1 3 3 3 3 1 0 2 1 3 0 5 4 4 4 3 4 4 3 6 4 3 7 6 5 4 4 6 4 4 6 9 7 7 8 8 6 5 4 5 6 5 4 5 6 5 5 6 8 7 7
2 1 0 2 4 4 4 3 3 4 2 2 3 2 2 3 6 5 3 3 5 6 6 7 6 4 6 7 7 6 7 7 8 11 13 13 14 12 8 6 6 6 7 7 7 6 7 7 7 8 8 8 8 8
Wind_Direction
280 277 279 275 279 272 270 271 274 276 282 277 272 272 272 262 256 253 251 220 218 247 264 253 261 258 255 249 275 348 342 296 272 253 266 274 279 309 303 291 276 270 277 255 258 266 266 4 303 248 335 357 2 356
281 282 281 274 278 277 274 275 278 275 272 275 277 272 269 270 263 244 259 242 232 231 267 320 268 251 246 248 261 237 241 308 242 288 313 333 317 308 298 279 345 271 350 308 309 330 321 338 333 312 307 331 337 327
284 278 277 279 271 270 271 271 271 273 275 273 274 271 270 268 262 251 245 240 236 238 247 232 234 238 247 240 234 230 258 224 240 231 276 273 263 351 296 302 319 301 296 305 324 311 311 316 317 0 0 337 324 325
282 284 275 277 276 277 267 265 267 271 271 273 271 270 264 264 265 259 242 230 212 257 260 252 311 217 228 222 222 214 240 262 271 258 249 251 228 227 260 276 279 284 307 295 283 283 299 301 324 325 327 329 354 339
281 280 280 274 276 275 274 269 267 268 271 267 265 265 271 273 267 265 246 222 198 224 291 283 164 229 230 210 221 227 228 237 240 251 239 248 245 256 249 267 267 263 266 279 285 298 302 311 325 329 346 337 328 317
276 278 277 276 277 275 271 268 267 268 269 263 266 267 266 268 267 267 246 206 194 197 248 253 233 229 227 214 222 222 221 231 227 222 238 223 231 244 249 248 260 267 268 276 303 349 309 301 324 344 334 314 322 319
274 281 277 277 274 273 272 268 270 267 262 262 266 268 269 269 258 224 247 141 179 185 221 237 233 232 212 209 210 224 226 218 213 232 228 244 248 255 265 268 270 270 324 326 14 355 331 354 318 311 313 314 315 308
270 274 277 278 275 273 274 275 270 265 259 263 266 270 275 272 267 251 235 204 136 173 261 270 227 107 163 181 223 187 203 207 211 225 234 240 252 255 259 261 282 14 336 309 353 332 290 290 298 301 306 316 314 306
272 276 273 272 271 272 270 270 266 261 260 266 271 284 285 255 229 216 199 214 182 197 234 212 175 236 147 234 181 44 211 237 224 225 238 216 238 235 252 290 301 13 325 304 313 311 300 308 301 303 310 317 308 303
269 271 273 274 273 271 267 267 259 257 266 274 286 236 236 196 167 114 87 162 204 230 224 200 91 210 172 194 208 190 210 214 224 234 229 211 247 259 77 105 67 341 339 338 333 328 329 308 308 307 306 306 302 302
271 274 269 270 271 265 263 261 252 251 269 99 214 225 143 171 203 139 177 199 166 233 231 226 188 221 236 187 207 222 205 219 210 242 167 244 262 222 112 72 11 343 331 325 308 288 290 290 299 303 302 305 301 297
273 268 271 268 267 264 261 251 243 231 179 178 173 299 181 188 182 154 189 131 203 211 240 173 218 178 278 103 128 239 210 229 238 197 101 258 232 90 50 357 330 320 315 300 292 292 291 290 291 289 292 298 299 296
268 268 268 266 264 258 253 242 239 223 164 149 202 205 206 194 199 194 161 178 189 193 226 200 258 175 287 224 207 225 222 226 78 121 213 217 89 46 357 327 312 310 302 301 298 291 290 290 292 290 292 292 295 297
271 270 265 261 260 257 234 229 189 145 143 200 221 201 197 169 226 193 183 153 220 76 85 134 219 186 214 208 233 228 236 92 225 237 229 75 25 310 316 318 318 316 313 304 300 297 299 301 300 299 294 297 300 296
276 265 253 257 253 244 211 167 171 158 154 226 164 227 216 79 66 37 320 82 20 324 351 344 335 222 230 255 228 237 261 231 213 224 56 347 335 322 319 317 310 307 307 302 301 304 304 303 304 303 304 302 293 305
272 266 246 239 239 172 151 122 95 138 181 145 168 189 1 50 94 56 7 78 357 347 336 22 280 261 226 204 190 222 199 223 263 3 307 320 317 313 310 309 305 299 298 300 302 302 301 305 305 305 308 308 311 311
94 233 206 206 181 140 137 100 113 80 136 126 104 29 57 85 97 98 318 32 338 330 225 274 220 220 326 247 227 36 236 349 321 315 305 302 304 310 308 303 305 305 304 304 301 304 307 309 308 311 324 327 330 345
273 308 189 125 124 93 48 60 114 141 117 30 61 32 49 30 100 56 14 2 327 20 335 288 323 244 243 242 291 342 336 325 298 311 309 304 303 300 302 303 305 306 306 306 306 308 310 315 322 333 329 328 346 356
129 108 97 114 89 89 104 61 5 91 73 92 88 71 78 103 71 49 357 331 45 347 311 301 254 245 341 37 293 304 302 291 310 315 304 301 298 305 305 308 311 313 311 306 315 318 319 330 341 336 338 342 7 13
78 72 75 61 47 79 82 37 55 84 92 92 71 66 66 72 98 42 4 7 29 42 51 44 98 192 196 267 246 288 293 299 308 312 308 317 318 319 319 322 327 319 316 320 329 333 343 356 0 358 358 7 15 28
31 12 32 54 53 50 67 15 65 75 99 87 132 75 82 85 43 33 22 320 67 35 73 192 211 251 270 249 243 255 277 285 299 285 295 309 324 319 327 338 336 336 333 343 344 352 3 2 357 3 13 22 31 30
28 17 52 9 80 56 70 18 45 94 79 124 90 63 83 72 56 316 250 62 55 211 168 196 263 282 301 284 274 255 271 285 284 293 317 317 315 332 349 353 347 342 340 349 357 356 359 360 5 13 26 31 40 49
35 32 53 14 71 46 350 338 72 1 101 128 120 92 54 56 310 218 84 144 215 206 187 216 254 246 241 279 306 330 326 329 346 350 334 320 316 338 355 5 0 357 352 353 0 4 9 8 13 21 28 35 42 47
30 44 34 41 33 64 15 36 13 61 39 62 86 99 36 90 255 62 150 239 231 174 68 334 294 316 293 340 25 17 5 351 5 15 3 342 346 349 357 15 18 13 359 341 360 11 13 18 18 25 29 37 38 43
72 352 23 29 16 40 51 34 360 55 87 16 108 128 84 309 119 64 226 253 192 168 58 315 315 23 4 324 351 2 55 10 357 12 359 355 339 334 358 4 14 32 1 2 8 5 9 12 19 23 25 26 31 34
72 330 66 10 16 61 5 77 42 31 11 85 54 6 328 88 110 241 225 182 175 160 162 136 59 334 93 37 306 325 331 339 315 281 3 5 12 5 351 354 352 350 7 354 346 357 1 5 13 18 23 18 21 29
73 6 6 243 341 41 64 39 352 28 60 81 360 329 207 232 243 239 208 182 155 168 155 139 147 274 293 307 281 282 296 272 258 275 178 157 124 76 28 340 333 305 331 333 329 332 345 347 357 3 358 349 12 8
112 37 86 300 44 38 118 59 58 140 225 331 44 232 214 204 240 231 177 108 128 118 152 161 179 214 259 269 262 291 305 317 297 235 234 198 190 191 211 257 264 307 322 318 316 324 312 303 318 327 341 337 323 331
47 326 57 36 28 47 118 151 208 235 201 107 159 262 260 249 227 217 230 155 125 126 205 206 216 149 277 262 267 226 221 298 24 32 357 300 321 293 215 269 273 274 265 281 308 333 334 348 272 245 266 266 273 285
340 7 63 51 99 241 241 160 209 263 262 179 208 310 289 276 246 199 158 146 165 201 206 192 172 148 235 231 298 310 257 190 186 162 195 242 237 258 292 292 292 287 294 316 305 311 317 3 338 355 351 336 327 316
328 30 35 80 198 249 235 294 316 332 348 294 290 174 250 293 306 247 201 191 175 140 135 241 258 217 203 230 202 264 302 258 214 228 233 254 270 271 268 263 251 241 228 233 252 248 258 268 250 271 283 285 290 275
18 90 122 30 291 291 23 37 268 275 300 23 278 297 320 358 288 277 225 124 117 200 224 189 199 251 209 225 220 230 223 249 222 228 236 242 248 249 252 252 241 226 230 239 238 236 236 246 258 255 264 274 273 268
30 52 249 14 2 358 327 39 16 334 353 310 280 221 232 193 245 275 295 205 189 202 212 214 224 227 218 218 223 235 229 238 244 252 256 251 251 257 258 247 236 223 234 245 252 241 251 252 264 265 266 268 274 277